{"data":{"norad_id":61574,"epoch":"2026-09-21T21:04:27.396768Z","epoch_age_seconds":73007,"freshness":"FRESH","line1":"1 61574U 24187A   26264.87809487  .00003723  00000+0  35536-4 0  9996","line2":"2 61574  53.1589  49.1381 0000512  80.1326 279.9750 15.69729623111596","mean_motion":15.69729623,"eccentricity":5.12e-5,"inclination_deg":53.1589,"raan_deg":49.1381,"arg_perigee_deg":80.1326,"mean_anomaly_deg":279.975,"bstar":3.5536e-5,"rev_number":11159,"period_min":91.735543427405,"perigee_km":359.32562174105,"apogee_km":360.01557323903,"semimajor_km":6737.80759749,"source":"CELESTRAK","updated_at":"2026-09-22T09:00:49.389897Z"}}